ATLAS AGENA B DEB, 631

Orbit data source: Space-Track

ATLAS AGENA B DEB, 631 is space debris in LEO originally from a launch on Fri, 19 Jul 1963 UTC launched from the Air Force Western Test Range (AFWTR). Debris objects in space refer to the collection of defunct objects orbiting the Earth. Examples of debris include non-operational satellites, rocket bodies, and fragments generated from explosions, collisions, or faulty payload assembly.

Loading next visibility...
Identifier
631, 1963-030E
Orbit
LEO
Country
Flag of USUS
Related business
Manufacturer
Unknown
Mission
Spacecraft
Bus & Motor
Unknown
Mass
~10 kg wet, ~10 kg dry
Launch date (UTC)
1963-07-19 (63 years ago)
Launch vehicle
Unknown
Launch site
Air Force Western Test Range (AFWTR)
Object type
Payload
Rocket body
Debris
Shape & HBR
Unknown
Radar Cross Section
Medium (>0.1 m² and <1 m²)

Expand to show TLE details & history
Last TLE update: 2 days ago

TLE from 2 days ago
0 ATLAS AGENA B DEB
1 00631U 63030E   26176.55609420  .00000003  00000-0  00000-0 0  9998
2 00631  88.4367 216.8341 0157533  79.9626 281.8957  8.55875767966353
Epoch: 2026-06-25T13:20Z
TLE epoch observation values (Epoch: 2026-06-25T13:20:46.538Z)
Latitude
-0.00011°
Longitude
102.94293°
Altitude
3,689.169 km
Speed
6.302 km/s
True Right ascension
14h 27m 20s
True Declination
0° 00' 00"
Sunlit
Object was in daylight at epoch
Visualization orbit readout
Latitude
Unknown
Longitude
Unknown
Altitude
Unknown
Speed
Unknown
Apparent Right ascension
Unknown
Apparent Declination
Unknown
Sunlit
N/A
Visualization observer readout
Local Sidereal Time
23:00:22
Azimuth
Unknown
Elevation
Unknown
Doppler factor
Unknown
Orbital elements
Apogee altitude
3,874.2 km
Perigee altitude
3,556.193 km
Semi-major axis
10,093.334 km
Eccentricity
0.01575
Inclination
88.4367°
RAAN
216.8341°
Arg. of periapsis
79.9626°
True anomaly
280.12236°
Mean anomaly
281.8957°
Eccentric anomaly
281.00971°
Mean motion
2.14038 °/min
Orbital period
168.19 mins
BSTAR
0
Loading maneuver chart data...
Computing Atmospheric mass density...
Loading historical data...
Loading historical data...
Loading historical data...
Loading historical data...
Loading historical data...
Loading historical data...
Loading historical data...

Documentation

Showing up to 5 results
|